THOR ABLESTAR DEB, 745

Orbit data source: Space-Track

THOR ABLESTAR DEB, 745 is space debris in LEO originally from a launch on Sat, 28 Sep 1963 UTC launched from the Air Force Western Test Range (AFWTR). Debris objects in space refer to the collection of defunct objects orbiting the Earth. Examples of debris include non-operational satellites, rocket bodies, and fragments generated from explosions, collisions, or faulty payload assembly.

Loading next visibility...
THOR ABLESTAR DEB details
Identifier
745, 1963-038E
Orbit
LEO
Last TLE update16 hours ago
Origin
Flag of USUSN BuWeps (US)
ManufacturerUnknown
MissionSpacecraft
Bus & MotorUnknown
MassUnknown
Launch date (UTC)
1963-09-28 (61 years ago)
Launch vehicleUnknown
Launch site
Air Force Western Test Range (AFWTR)
Object type
Payload
Rocket body
Debris
Shape & HBRUnknown
Radar Cross SectionSmall (<0.1 m²)

Expand to show TLE details & history

TLE from 16 hours ago
0 THOR ABLESTAR DEB
1   745U 63038E   24355.96229359  .00000447  00000-0  63279-3 0  9995
2   745  90.0009 336.4625 0019636  78.0382 336.4124 13.55271180 17967
Epoch: 2024-12-20T23:05Z
Definitive object data (Epoch: 2024-12-20T23:05:42.166Z)
Latitude54.45487°
Longitude-99.98473°
Altitude1,048.614 km
Speed7.339 km/s
True Right ascension22h 25m 50s
True Declination54° 17' 54"
Sunlit
Object was in daylight at TLE epoch
Visualization TLE readout
Latitude27.15931°
Longitude-99.98387°
Altitude1,046.714 km
Speed7.336 km/s
Apparent Right ascension23h 54m 25s
Apparent Declination-3° 52' 05"
Sunlit
Object is in daylight
Visualization observer readout
Local Sidereal Time13:56:43
Azimuth45.457° ENE
Elevation-44.598°
Doppler factor1
Orbital elements
Apogee altitude1,064.556 km
Perigee altitude1,035.384 km
Semi-major axis7,428.107 km
Eccentricity0.0019636
Inclination90.0009°
RAAN336.4625°
Arg. of periapsis78.0382°
True anomaly336.32216°
Mean anomaly336.4124°
Eccentric anomaly336.3673°
Mean motion3.39021 °/min
BSTAR0.00063279
Orbital period106.19 mins
Loading maneuver chart data...

THOR ABLESTAR DEB Visibility forecast

Observer location: undefined°, undefined

Span
Click to sort rows by Start time (UTC) header in descending order
Start Az.
Max El. time (UTC)
Max El. Az.
Max El.
End time (UTC)
End Az.
9 mins2024-12-21 21:59:31.239Z122.096° SE2024-12-21 22:04:31.239Z70.854° E20.954°2024-12-21 22:08:31.239Z29.336° NE
11 mins2024-12-21 23:44:31.239Z196.316° SSW2024-12-21 23:49:31.239Z259.754° W39.405°2024-12-21 23:55:31.239Z347.396° N
11 mins2024-12-22 10:52:31.239Z13.713° NNE2024-12-22 10:57:31.239Z100.494° ESE40.984°2024-12-22 11:03:31.239Z169.126° S
7 mins2024-12-22 12:39:31.239Z322.114° NNW2024-12-22 12:42:31.239Z289.561° WNW19.609°2024-12-22 12:46:31.239Z246.997° WSW
|